Time,TemperatureF,DewpointF,PressureIn,WindDirection,WindDirectionDegrees,WindSpeedMPH,WindSpeedGustMPH,Humidity,HourlyPrecipIn,Conditions,Clouds,dailyrainin,SoftwareType,DateUTC
2013-02-27 00:00:00,33.0,29.0,-100.00,East,90,14.0,25.0,88,-99.99,,,-99.99,,2013-02-27 05:00:00,
2013-02-27 00:02:00,32.0,29.0,-100.00,East,80,18.0,32.0,87,-99.99,,,-99.99,,2013-02-27 05:02:00,
2013-02-27 00:12:00,32.0,29.0,-100.00,ENE,70,16.0,29.0,87,-99.99,,,-99.99,,2013-02-27 05:12:00,
2013-02-27 00:22:00,32.0,29.0,-100.00,ENE,70,16.0,29.0,87,-99.99,,,-99.99,,2013-02-27 05:22:00,
2013-02-27 00:32:00,33.0,29.0,-100.00,East,90,15.0,25.0,88,-99.99,,,-99.99,,2013-02-27 05:32:00,
2013-02-27 00:42:00,33.0,29.0,-100.00,East,90,14.0,25.0,88,-99.99,,,-99.99,,2013-02-27 05:42:00,
2013-02-27 00:52:00,33.0,29.0,-100.00,East,90,14.0,25.0,88,-99.99,,,-99.99,,2013-02-27 05:52:00,
2013-02-27 01:11:00,33.0,30.0,-100.00,East,80,17.0,29.0,88,-99.99,,,-99.99,,2013-02-27 06:11:00,
2013-02-27 01:22:00,33.0,30.0,-100.00,East,80,17.0,29.0,88,-99.99,,,-99.99,,2013-02-27 06:22:00,
2013-02-27 01:33:00,33.0,30.0,-100.00,East,80,18.0,28.0,88,-99.99,,,-99.99,,2013-02-27 06:33:00,
2013-02-27 01:42:00,33.0,30.0,-100.00,East,95,17.0,28.0,88,-99.99,,,-99.99,,2013-02-27 06:42:00,
2013-02-27 01:52:00,33.0,30.0,-100.00,East,95,17.0,28.0,88,-99.99,,,-99.99,,2013-02-27 06:52:00,
2013-02-27 02:01:00,33.0,30.0,-100.00,East,90,17.0,28.0,88,-99.99,,,-99.99,,2013-02-27 07:01:00,
2013-02-27 02:12:00,33.0,30.0,-100.00,East,90,17.0,28.0,88,-99.99,,,-99.99,,2013-02-27 07:12:00,
2013-02-27 03:01:00,33.0,30.0,-100.00,East,85,21.0,34.0,88,-99.99,,,-99.99,,2013-02-27 08:01:00,
2013-02-27 03:11:00,34.0,31.0,-100.00,East,85,22.0,32.0,88,-99.99,,,-99.99,,2013-02-27 08:11:00,
2013-02-27 03:22:00,34.0,31.0,-100.00,East,85,22.0,32.0,88,-99.99,,,-99.99,,2013-02-27 08:22:00,
2013-02-27 03:32:00,34.0,31.0,-100.00,ENE,75,21.0,33.0,88,-99.99,,,-99.99,,2013-02-27 08:32:00,
2013-02-27 03:42:00,34.0,31.0,-100.00,East,85,21.0,33.0,88,-99.99,,,-99.99,,2013-02-27 08:42:00,
2013-02-27 03:53:00,34.0,31.0,-100.00,East,85,21.0,33.0,88,-99.99,,,-99.99,,2013-02-27 08:53:00,
2013-02-27 04:02:00,34.0,31.0,-100.00,East,85,24.0,34.0,88,-99.99,,,-99.99,,2013-02-27 09:02:00,
2013-02-27 04:12:00,35.0,31.0,-100.00,East,80,27.0,36.0,88,-99.99,,,-99.99,,2013-02-27 09:12:00,
2013-02-27 04:22:00,35.0,31.0,-100.00,East,80,27.0,36.0,88,-99.99,,,-99.99,,2013-02-27 09:22:00,
2013-02-27 04:32:00,34.0,31.0,-100.00,East,90,21.0,34.0,88,-99.99,,,-99.99,,2013-02-27 09:32:00,
2013-02-27 04:42:00,34.0,31.0,-100.00,East,85,19.0,34.0,88,-99.99,,,-99.99,,2013-02-27 09:42:00,
2013-02-27 04:52:00,34.0,31.0,-100.00,East,85,19.0,34.0,88,-99.99,,,-99.99,,2013-02-27 09:52:00,
2013-02-27 05:01:00,35.0,31.0,-100.00,East,85,20.0,35.0,88,-99.99,,,-99.99,,2013-02-27 10:01:00,
2013-02-27 05:12:00,35.0,32.0,-100.00,East,95,25.0,35.0,88,-99.99,,,-99.99,,2013-02-27 10:12:00,
2013-02-27 05:22:00,35.0,32.0,-100.00,East,95,25.0,35.0,88,-99.99,,,-99.99,,2013-02-27 10:22:00,
2013-02-27 05:32:00,35.0,32.0,-100.00,East,80,23.0,35.0,88,-99.99,,,-99.99,,2013-02-27 10:32:00,
2013-02-27 05:42:00,35.0,32.0,-100.00,ENE,75,20.0,39.0,87,-99.99,,,-99.99,,2013-02-27 10:42:00,
2013-02-27 05:53:00,35.0,32.0,-100.00,ENE,75,20.0,39.0,87,-99.99,,,-99.99,,2013-02-27 10:53:00,
2013-02-27 06:12:00,36.0,33.0,-100.00,East,85,26.0,36.0,87,-99.99,,,-99.99,,2013-02-27 11:12:00,
2013-02-27 06:22:00,36.0,33.0,-100.00,East,85,26.0,36.0,87,-99.99,,,-99.99,,2013-02-27 11:22:00,
2013-02-27 06:32:00,36.0,33.0,-100.00,ENE,75,20.0,36.0,87,-99.99,,,-99.99,,2013-02-27 11:32:00,
2013-02-27 06:42:00,37.0,33.0,-100.00,East,85,19.0,29.0,87,-99.99,,,-99.99,,2013-02-27 11:42:00,
2013-02-27 06:52:00,37.0,34.0,-100.00,East,85,20.0,34.0,87,-99.99,,,-99.99,,2013-02-27 11:52:00,
2013-02-27 07:02:00,37.0,34.0,-100.00,East,85,20.0,34.0,87,-99.99,,,-99.99,,2013-02-27 12:02:00,
2013-02-27 07:13:00,37.0,34.0,-100.00,East,85,20.0,34.0,87,-99.99,,,-99.99,,2013-02-27 12:13:00,
2013-02-27 07:33:00,38.0,35.0,-100.00,East,85,19.0,32.0,88,-99.99,,,-99.99,,2013-02-27 12:33:00,
2013-02-27 07:42:00,38.0,35.0,-100.00,East,95,23.0,35.0,87,-99.99,,,-99.99,,2013-02-27 12:42:00,
2013-02-27 07:53:00,38.0,35.0,-100.00,East,95,23.0,35.0,87,-99.99,,,-99.99,,2013-02-27 12:53:00,
2013-02-27 08:03:00,39.0,35.0,-100.00,ENE,75,24.0,36.0,87,-99.99,,,-99.99,,2013-02-27 13:03:00,
2013-02-27 08:12:00,39.0,35.0,-100.00,ENE,75,24.0,36.0,87,-99.99,,,-99.99,,2013-02-27 13:12:00,
2013-02-27 08:32:00,40.0,36.0,-100.00,East,85,17.0,31.0,87,-99.99,,,-99.99,,2013-02-27 13:32:00,
2013-02-27 08:42:00,41.0,37.0,-100.00,East,85,22.0,35.0,87,-99.99,,,-99.99,,2013-02-27 13:42:00,
2013-02-27 08:53:00,41.0,37.0,-100.00,East,85,22.0,35.0,87,-99.99,,,-99.99,,2013-02-27 13:53:00,
2013-02-27 09:02:00,41.0,38.0,-100.00,East,85,20.0,35.0,87,-99.99,,,-99.99,,2013-02-27 14:02:00,
2013-02-27 09:12:00,42.0,38.0,-100.00,East,90,21.0,43.0,86,-99.99,,,-99.99,,2013-02-27 14:12:00,
2013-02-27 09:22:00,42.0,38.0,-100.00,East,90,21.0,43.0,86,-99.99,,,-99.99,,2013-02-27 14:22:00,
2013-02-27 09:32:00,42.0,38.0,-100.00,East,95,24.0,35.0,86,-99.99,,,-99.99,,2013-02-27 14:32:00,
2013-02-27 09:42:00,42.0,39.0,-100.00,East,80,28.0,42.0,86,-99.99,,,-99.99,,2013-02-27 14:42:00,
2013-02-27 09:53:00,42.0,39.0,-100.00,East,80,28.0,42.0,86,-99.99,,,-99.99,,2013-02-27 14:53:00,
2013-02-27 10:02:00,42.0,39.0,-100.00,East,80,21.0,35.0,86,-99.99,,,-99.99,,2013-02-27 15:02:00,
2013-02-27 10:12:00,42.0,39.0,-100.00,East,100,19.0,36.0,86,-99.99,,,-99.99,,2013-02-27 15:12:00,
2013-02-27 10:23:00,42.0,39.0,-100.00,East,100,19.0,36.0,86,-99.99,,,-99.99,,2013-02-27 15:23:00,
2013-02-27 10:32:00,42.0,39.0,-100.00,East,85,18.0,31.0,86,-99.99,,,-99.99,,2013-02-27 15:32:00,
2013-02-27 10:42:00,42.0,39.0,-100.00,East,95,19.0,32.0,86,-99.99,,,-99.99,,2013-02-27 15:42:00,
2013-02-27 10:52:00,42.0,39.0,-100.00,East,95,19.0,32.0,86,-99.99,,,-99.99,,2013-02-27 15:52:00,
2013-02-27 11:02:00,42.0,39.0,-100.00,ESE,110,17.0,34.0,86,-99.99,,,-99.99,,2013-02-27 16:02:00,
2013-02-27 11:12:00,42.0,39.0,-100.00,East,95,22.0,34.0,86,-99.99,,,-99.99,,2013-02-27 16:12:00,
2013-02-27 11:22:00,42.0,39.0,-100.00,East,95,22.0,34.0,86,-99.99,,,-99.99,,2013-02-27 16:22:00,
2013-02-27 11:32:00,42.0,39.0,-100.00,East,90,21.0,27.0,87,-99.99,,,-99.99,,2013-02-27 16:32:00,
2013-02-27 11:42:00,42.0,39.0,-100.00,East,85,20.0,33.0,87,-99.99,,,-99.99,,2013-02-27 16:42:00,
2013-02-27 11:52:00,42.0,39.0,-100.00,East,85,20.0,33.0,87,-99.99,,,-99.99,,2013-02-27 16:52:00,
2013-02-27 12:02:00,42.0,39.0,-100.00,East,95,18.0,29.0,87,-99.99,,,-99.99,,2013-02-27 17:02:00,
2013-02-27 12:11:00,42.0,39.0,-100.00,East,95,18.0,29.0,87,-99.99,,,-99.99,,2013-02-27 17:11:00,
2013-02-27 12:32:00,42.0,39.0,-100.00,East,90,17.0,22.0,87,-99.99,,,-99.99,,2013-02-27 17:32:00,
2013-02-27 12:42:00,42.0,39.0,-100.00,East,100,13.0,24.0,87,-99.99,,,-99.99,,2013-02-27 17:42:00,
2013-02-27 12:52:00,42.0,39.0,-100.00,East,100,13.0,24.0,87,-99.99,,,-99.99,,2013-02-27 17:52:00,
2013-02-27 13:02:00,42.0,39.0,-100.00,East,90,13.0,22.0,87,-99.99,,,-99.99,,2013-02-27 18:02:00,
2013-02-27 13:11:00,42.0,39.0,-100.00,ESE,105,10.0,18.0,87,-99.99,,,-99.99,,2013-02-27 18:11:00,
2013-02-27 13:22:00,42.0,39.0,-100.00,ESE,105,10.0,18.0,87,-99.99,,,-99.99,,2013-02-27 18:22:00,
2013-02-27 13:32:00,42.0,39.0,-100.00,SE,125,7.0,13.0,87,-99.99,,,-99.99,,2013-02-27 18:32:00,
2013-02-27 13:42:00,43.0,39.0,-100.00,WSW,255,5.0,10.0,87,-99.99,,,-99.99,,2013-02-27 18:42:00,
2013-02-27 13:52:00,43.0,39.0,-100.00,WSW,255,5.0,10.0,87,-99.99,,,-99.99,,2013-02-27 18:52:00,
2013-02-27 14:02:00,43.0,39.0,-100.00,West,280,4.0,10.0,87,-99.99,,,-99.99,,2013-02-27 19:02:00,
2013-02-27 14:12:00,43.0,40.0,-100.00,WNW,300,4.0,10.0,87,-99.99,,,-99.99,,2013-02-27 19:12:00,
2013-02-27 14:22:00,43.0,40.0,-100.00,WNW,300,4.0,10.0,87,-99.99,,,-99.99,,2013-02-27 19:22:00,
2013-02-27 14:32:00,42.0,39.0,-100.00,WNW,290,5.0,10.0,87,-99.99,,,-99.99,,2013-02-27 19:32:00,
2013-02-27 14:42:00,43.0,39.0,-100.00,NW,305,5.0,11.0,87,-99.99,,,-99.99,,2013-02-27 19:42:00,
2013-02-27 14:52:00,43.0,39.0,-100.00,NW,305,5.0,11.0,87,-99.99,,,-99.99,,2013-02-27 19:52:00,
2013-02-27 15:02:00,44.0,40.0,-100.00,WNW,290,4.0,9.0,87,-99.99,,,-99.99,,2013-02-27 20:02:00,
2013-02-27 15:12:00,43.0,40.0,-100.00,WNW,295,6.0,14.0,87,-99.99,,,-99.99,,2013-02-27 20:12:00,
2013-02-27 15:22:00,43.0,40.0,-100.00,WNW,295,6.0,14.0,87,-99.99,,,-99.99,,2013-02-27 20:22:00,
2013-02-27 15:32:00,42.0,39.0,-100.00,NW,310,6.0,12.0,87,-99.99,,,-99.99,,2013-02-27 20:32:00,
2013-02-27 15:42:00,43.0,39.0,-100.00,WNW,295,4.0,14.0,85,-99.99,,,-99.99,,2013-02-27 20:42:00,
2013-02-27 15:53:00,43.0,39.0,-100.00,WNW,295,4.0,14.0,85,-99.99,,,-99.99,,2013-02-27 20:53:00,
2013-02-27 16:02:00,43.0,37.0,-100.00,West,270,6.0,17.0,80,-99.99,,,-99.99,,2013-02-27 21:02:00,
2013-02-27 16:11:00,43.0,35.0,-100.00,West,260,6.0,18.0,75,-99.99,,,-99.99,,2013-02-27 21:11:00,
2013-02-27 16:22:00,43.0,35.0,-100.00,West,260,6.0,18.0,75,-99.99,,,-99.99,,2013-02-27 21:22:00,
2013-02-27 16:32:00,43.0,35.0,-100.00,WNW,295,5.0,15.0,73,-99.99,,,-99.99,,2013-02-27 21:32:00,
2013-02-27 16:42:00,42.0,33.0,-100.00,WNW,290,6.0,11.0,70,-99.99,,,-99.99,,2013-02-27 21:42:00,
2013-02-27 16:52:00,42.0,33.0,-100.00,WNW,290,6.0,11.0,70,-99.99,,,-99.99,,2013-02-27 21:52:00,
2013-02-27 17:02:00,42.0,32.0,-100.00,NW,310,7.0,15.0,68,-99.99,,,-99.99,,2013-02-27 22:02:00,
2013-02-27 17:12:00,41.0,32.0,-100.00,WSW,245,6.0,22.0,69,-99.99,,,-99.99,,2013-02-27 22:12:00,
2013-02-27 17:22:00,41.0,32.0,-100.00,WSW,245,6.0,22.0,69,-99.99,,,-99.99,,2013-02-27 22:22:00,
2013-02-27 17:32:00,41.0,31.0,-100.00,WNW,290,5.0,14.0,69,-99.99,,,-99.99,,2013-02-27 22:32:00,
2013-02-27 17:42:00,41.0,32.0,-100.00,WNW,290,6.0,20.0,70,-99.99,,,-99.99,,2013-02-27 22:42:00,
2013-02-27 17:52:00,41.0,32.0,-100.00,WNW,290,6.0,20.0,70,-99.99,,,-99.99,,2013-02-27 22:52:00,
2013-02-27 18:02:00,41.0,32.0,-100.00,WNW,290,5.0,13.0,70,-99.99,,,-99.99,,2013-02-27 23:02:00,
2013-02-27 18:12:00,41.0,32.0,-100.00,WNW,290,5.0,13.0,70,-99.99,,,-99.99,,2013-02-27 23:12:00,
2013-02-27 18:32:00,40.0,31.0,-100.00,WNW,295,5.0,11.0,70,-99.99,,,-99.99,,2013-02-27 23:32:00,
2013-02-27 18:42:00,40.0,31.0,-100.00,WNW,285,5.0,12.0,70,-99.99,,,-99.99,,2013-02-27 23:42:00,
2013-02-27 18:52:00,40.0,31.0,-100.00,WNW,285,5.0,12.0,70,-99.99,,,-99.99,,2013-02-27 23:52:00,
2013-02-27 19:02:00,40.0,31.0,-100.00,NW,305,3.0,11.0,69,-99.99,,,-99.99,,2013-02-28 00:02:00,
2013-02-27 19:13:00,40.0,31.0,-100.00,WNW,285,4.0,12.0,68,-99.99,,,-99.99,,2013-02-28 00:13:00,
2013-02-27 19:22:00,40.0,31.0,-100.00,WNW,285,4.0,12.0,68,-99.99,,,-99.99,,2013-02-28 00:22:00,
2013-02-27 19:32:00,40.0,31.0,-100.00,West,265,4.0,15.0,68,-99.99,,,-99.99,,2013-02-28 00:32:00,
2013-02-27 19:42:00,41.0,31.0,-100.00,WNW,290,4.0,12.0,68,-99.99,,,-99.99,,2013-02-28 00:42:00,
2013-02-27 19:52:00,41.0,31.0,-100.00,WNW,290,4.0,12.0,68,-99.99,,,-99.99,,2013-02-28 00:52:00,
2013-02-27 20:01:00,40.0,31.0,-100.00,WNW,290,4.0,7.0,69,-99.99,,,-99.99,,2013-02-28 01:01:00,
2013-02-27 20:11:00,40.0,31.0,-100.00,WNW,285,4.0,11.0,70,-99.99,,,-99.99,,2013-02-28 01:11:00,
2013-02-27 20:22:00,40.0,31.0,-100.00,WNW,285,4.0,11.0,70,-99.99,,,-99.99,,2013-02-28 01:22:00,
2013-02-27 20:32:00,40.0,31.0,-100.00,NW,305,3.0,11.0,70,-99.99,,,-99.99,,2013-02-28 01:32:00,
2013-02-27 20:42:00,40.0,31.0,-100.00,WNW,295,4.0,11.0,70,-99.99,,,-99.99,,2013-02-28 01:42:00,
2013-02-27 20:52:00,40.0,31.0,-100.00,WNW,295,4.0,11.0,70,-99.99,,,-99.99,,2013-02-28 01:52:00,
2013-02-27 21:01:00,40.0,31.0,-100.00,NW,305,5.0,12.0,71,-99.99,,,-99.99,,2013-02-28 02:01:00,
2013-02-27 21:11:00,40.0,31.0,-100.00,WNW,300,3.0,8.0,71,-99.99,,,-99.99,,2013-02-28 02:11:00,
2013-02-27 21:22:00,40.0,31.0,-100.00,WNW,300,3.0,8.0,71,-99.99,,,-99.99,,2013-02-28 02:22:00,
2013-02-27 21:32:00,39.0,31.0,-100.00,WNW,290,2.0,15.0,72,-99.99,,,-99.99,,2013-02-28 02:32:00,
2013-02-27 21:42:00,39.0,31.0,-100.00,WNW,290,2.0,15.0,72,-99.99,,,-99.99,,2013-02-28 02:42:00,
2013-02-27 22:02:00,39.0,31.0,-100.00,SW,235,3.0,6.0,73,-99.99,,,-99.99,,2013-02-28 03:02:00,
2013-02-27 22:11:00,39.0,31.0,-100.00,West,275,1.0,5.0,74,-99.99,,,-99.99,,2013-02-28 03:11:00,
2013-02-27 22:22:00,39.0,31.0,-100.00,West,275,1.0,5.0,74,-99.99,,,-99.99,,2013-02-28 03:22:00,
2013-02-27 22:32:00,39.0,32.0,-100.00,WSW,250,2.0,5.0,75,-99.99,,,-99.99,,2013-02-28 03:32:00,
2013-02-27 22:42:00,39.0,32.0,-100.00,West,280,1.0,4.0,75,-99.99,,,-99.99,,2013-02-28 03:42:00,
2013-02-27 22:52:00,39.0,32.0,-100.00,West,280,1.0,4.0,75,-99.99,,,-99.99,,2013-02-28 03:52:00,
2013-02-27 23:02:00,39.0,32.0,-100.00,WSW,250,1.0,5.0,75,-99.99,,,-99.99,,2013-02-28 04:02:00,
2013-02-27 23:11:00,39.0,32.0,-100.00,WNW,300,3.0,7.0,75,-99.99,,,-99.99,,2013-02-28 04:11:00,
2013-02-27 23:22:00,39.0,32.0,-100.00,WNW,300,3.0,7.0,75,-99.99,,,-99.99,,2013-02-28 04:22:00,
2013-02-27 23:32:00,39.0,32.0,-100.00,NW,315,3.0,7.0,75,-99.99,,,-99.99,,2013-02-28 04:32:00,
2013-02-27 23:42:00,40.0,32.0,-100.00,WNW,300,2.0,6.0,73,-99.99,,,-99.99,,2013-02-28 04:42:00,
2013-02-27 23:52:00,40.0,32.0,-100.00,WNW,300,2.0,6.0,73,-99.99,,,-99.99,,2013-02-28 04:52:00,